Aeroporto :
LOGIN :

Iscrizione | Disclaimer

   EN    FR    IT 

 










Sommario :    VFR   VFR Marginale   IFR   IFR Intensivo   IFR Molto Intensivo
Visibilità : 
Base nubi : 
>= 8 km
>= 3000ft
5 / 8 km
1000 / 3000 ft
1500m / 5 km
500 / 1000 ft
800 / 1500m
200 / 500 ft
< 800m
< 200 ft
Simboli :   Temporali  Nebbia  Neve Forte  Precipitazioni Forti  Vento > 20 kt
SIGMETs :   Varie  Temporali  Ghiacco  Turbolenza  Onda orograficha  Ceneri Vulcaniche






- Altitudine del aeroporto : 1345 ft
- Codice IATA : FRZ


ETHF - Fritzlar

ULTIMO METAR :
  • 141920Z 05003KT 9999 FEW140 BKN220 04/00 Q1004 BLU+BLU+

METARs OBSOLETI :
  • 141820Z 03003KT 9999 SCT160 BKN220 04/01 Q1004 BLU+BLU+
  • 141720Z 30002KT 9999 FEW190 BKN240 03/01 Q1004 BLU+BLU+

TAF TAF ETHF
Valido dal 14 a 15 ore il 15 a 00 ore UTC


141503Z 1415/1424 12005KT 9999 NSW BKN250
PROB30 1420/1424 VRB02KT 8000 NSW SCT010 BKN250



MetMap, La meteo Aeronautica in un colpo d'occhio ! - Copyright ORBIFLY Dicembre 2007 - Disclaimer

ORBIFLY MET'MAP TEAM :

Programmazione e sviluppo : Alexandra Zaïnal
Concezione e sviluppo : Baudouin d'Aumeries
Co-Programmazione e sviluppo : Marc-Olivier Méhu
Supporto tecnico e logistico : Manuel Goepfert
Aiuto per la traduzione : Arnaldo La Scala

Contatto : metmap@orbifly.com




FONTI E CREDITI :

   NOAA